Regional Weather Roundup
Issued by NWS

Home | Current Version | Previous Version | Graphics & Text | Print | Product List | Glossary Off
Versions: 1 2 3 4 5 6 7 8 9 10 11 12 13 14 15 16 17 18 19 20 21 22 23 24 25 26 27 28 29 30 31 32 33 34 35 36 37 38 39 40 41 42 43 44 45 46 47 48 49 50

000
ASUS43 KLSX 052207
RWRMO

WEATHER SUMMARY FOR MISSOURI
NATIONAL WEATHER SERVICE SPRINGFIELD MO
500 PM CDT THU MAY 05 2016

NOTE: "FAIR" INDICATES FEW OR NO CLOUDS BELOW 12,000 FEET WITH NO
       SIGNIFICANT WEATHER AND/OR OBSTRUCTIONS TO VISIBILITY.
       CURRENT SKY AND/OR WEATHER CONDITIONS ARE NOT AVAILABLE FOR
       CHILLICOTHE AND FARMINGTON.

MOZ001>031-035>038-043-044-053-054-052300-
...NORTHERN AND WESTERN MISSOURI...

CITY           SKY/WX    TMP DP  RH WIND       PRES   REMARKS
KANSAS CTY INT MOSUNNY   72  39  30 CALM      30.05F
KANSAS C DTWN  SUNNY     74  35  24 CALM      30.03F
LEE`S SUMMIT   SUNNY     72  34  24 N7        30.05F
ST JOSEPH      SUNNY     73  35  25 NE5       30.04F
CHILLICOTHE      N/A     72  33  24 VRB5      30.05F
KIRKSVILLE     SUNNY     68  33  27 N6        30.05F

$$
MOZ066>068-077>081-088>096-101>105-052300-
...SOUTHWEST MISSOURI...

CITY           SKY/WX    TMP DP  RH WIND       PRES   REMARKS
SPRINGFIELD    SUNNY     71  32  23 N12       30.02F
JOPLIN         SUNNY     72  43  35 N10       30.04F
BRANSON        MOSUNNY   72  34  25 N14G24    30.02F

$$
MOZ032>034-039>042-045>050-055>058-069>072-052300-
...CENTRAL MISSOURI...

CITY           SKY/WX    TMP DP  RH WIND       PRES   REMARKS
COLUMBIA       SUNNY     69  35  28 N14       30.03F
JEFFERSON CITY SUNNY     70  35  27 N8        30.02F
ROLLA          SUNNY     66  39  37 N12       30.00F
SEDALIA        SUNNY     72  30  21 N7        30.05S
WHITEMAN AFB   MOSUNNY   71  33  24 NW8       30.03S
OSAGE BEACH    SUNNY     70  34  26 N6        30.03S

$$
MOZ051-052-059>065-052300-
...EAST CENTRAL MISSOURI...

CITY           SKY/WX    TMP DP  RH WIND       PRES   REMARKS
ST LOUIS INTL  MOSUNNY   67  42  40 N9        30.01F
SPIRIT OF STL  MOSUNNY   67  42  40 N7        30.00F
ST CHARLES     MOSUNNY   67  44  43 N9        30.00F

$$
MOZ072>076-082>087-097>100-106>115-052300-
...SOUTH CENTRAL AND SOUTHEAST MISSOURI...

CITY           SKY/WX    TMP DP  RH WIND       PRES   REMARKS
CAPE GIRARDEAU CLOUDY    63  43  48 N18       30.00R
FARMINGTON     MOSUNNY   64  42  44 NE13G18   30.01S
POPLAR BLUFF   MOSUNNY   69  42  37 N15G21    29.96S
WEST PLAINS    SUNNY     70  31  23 N12G23    30.00S

$$



USA.gov is the U.S. government's official web portal to all federal, state and local government web resources and services.